Trenton, NJ

7:06 PM EST on December 09, 2016 (GMT -0500)
McGuire Air Force Base

Weather History for KWRI - June, 2013

Change the Weather History Date:

Thursday, June 13, 2013

  Actual Average Record
Temperature  
Mean Temperature 69 °F -  
Max Temperature 78 °F 76 °F 95 °F (2001)
Min Temperature 60 °F 57 °F 48 °F (2004)
Cooling Degree Days 4    
Growing Degree Days 19 (Base 50)    
Moisture  
Dew Point 65 °F    
Average Humidity 87    
Maximum Humidity 100    
Minimum Humidity 62    
Precipitation  
Precipitation 0.96 in - - ()
Sea Level Pressure  
Sea Level Pressure 29.55 in    
Wind  
Wind Speed 9 mph (SE)    
Max Wind Speed 18 mph    
Max Gust Speed 24 mph    
Visibility 8 miles    
Events Fog , Rain , Thunderstorm    
Averages and records for this station are not official NWS values.
T = Trace of Precipitation, MM = Missing Value Source: NWS Daily Summary

Daily Weather History Graph

Daily Weather History Graph

Search for Another Location

Airport or City:

Trip Planner

Search our weather history database for the weather conditions in past years. The results will help you decide how hot, cold, wet, or windy it might be!

Date:

Astronomy

Jun. 13, 2013 Rise Set
Actual Time 5:28 AM EDT 8:28 PM EDT
Civil Twilight 4:56 AM EDT 9:01 PM EDT
Nautical Twilight 4:14 AM EDT 9:42 PM EDT
Astronomical Twilight 3:26 AM EDT 10:31 PM EDT
Moon 10:03 AM EDT (6/13) 11:33 PM EDT (6/13)
Length of Visible Light 16h 04m
Length of Day
14h 59m
Waxing Crescent, 21% of the Moon is Illuminated
Jun 13
Waxing Crescent
Jun 16
First Quarter
Jun 23
Full
Jun 30
Last Quarter
Jul 8
New

Hourly Weather History & Observations

Time (EDT) Temp. Dew Point Humidity Pressure Visibility Wind Dir Wind Speed Gust Speed Precip Events Conditions
12:58 AM 63.3 °F 57.9 °F 83% 29.83 in 10.0 mi SE 4.6 mph - N/A   Mostly Cloudy
1:58 AM 63.1 °F 57.6 °F 82% 29.82 in 10.0 mi South 6.9 mph - N/A   Partly Cloudy
2:58 AM 63.5 °F 57.9 °F 82% 29.81 in 10.0 mi South 5.8 mph - N/A   Mostly Cloudy
3:58 AM 64.2 °F 57.9 °F 80% 29.79 in 10.0 mi SE 4.6 mph - N/A   Scattered Clouds
4:58 AM 64.4 °F 56.7 °F 76% 29.77 in 10.0 mi SSE 5.8 mph - N/A   Mostly Cloudy
5:58 AM 65.1 °F 55.8 °F 72% 29.76 in 10.0 mi ESE 5.8 mph - N/A   Scattered Clouds
6:56 AM 66.2 °F 55.4 °F 68% 29.72 in 10.0 mi ESE 8.1 mph - N/A Rain Light Rain
6:57 AM 66.2 °F 55.4 °F 68% 29.72 in 10.0 mi ESE 9.2 mph - N/A   Partly Cloudy
6:58 AM 66.2 °F 55.4 °F 68% 29.73 in 10.0 mi ESE 8.1 mph - N/A   Partly Cloudy
7:07 AM 66.2 °F 55.4 °F 68% 29.72 in 10.0 mi SE 6.9 mph - N/A Rain Light Rain
7:16 AM 66.2 °F 55.4 °F 68% 29.72 in 10.0 mi SE 9.2 mph - N/A   Scattered Clouds
7:58 AM 67.8 °F 56.3 °F 67% 29.71 in 10.0 mi SE 11.5 mph - 0.00 in   Clear
8:58 AM 69.4 °F 56.1 °F 62% 29.70 in 10.0 mi SE 8.1 mph - N/A   Scattered Clouds
9:58 AM 68.2 °F 57.9 °F 70% 29.64 in 10.0 mi SE 15.0 mph - N/A Rain , Thunderstorm Light Thunderstorms and Rain
10:05 AM 68.0 °F 59.0 °F 73% 29.62 in 10.0 mi SE 15.0 mph 20.7 mph N/A Rain , Thunderstorm Light Thunderstorms and Rain
10:19 AM 66.2 °F 60.8 °F 83% 29.67 in 2.5 mi Variable 2.3 mph - N/A Rain , Thunderstorm Heavy Thunderstorms and Rain
10:21 AM 66.2 °F 60.8 °F 83% 29.68 in 1.5 mi West 6.9 mph - N/A Rain , Thunderstorm Heavy Thunderstorms and Rain
10:23 AM 66.2 °F 60.8 °F 83% 29.70 in 1.2 mi West 13.8 mph - N/A Rain , Thunderstorm Heavy Thunderstorms and Rain
10:25 AM 66.2 °F 60.8 °F 83% 29.72 in 1.0 mi West 18.4 mph 24.2 mph N/A Rain , Thunderstorm Heavy Thunderstorms and Rain
10:26 AM 66.2 °F 60.8 °F 83% 29.73 in 1.0 mi WSW 18.4 mph 24.2 mph N/A Rain , Thunderstorm Heavy Thunderstorms and Rain
10:27 AM 64.4 °F 60.8 °F 88% 29.73 in 0.8 mi SW 18.4 mph 24.2 mph N/A Rain , Thunderstorm Heavy Thunderstorms and Rain
10:28 AM 64.4 °F 62.6 °F 94% 29.73 in 0.5 mi SSW 17.3 mph 24.2 mph N/A Fog , Rain , Thunderstorm Heavy Thunderstorms and Rain
10:29 AM 64.4 °F 62.6 °F 94% 29.71 in 0.2 mi South 13.8 mph 24.2 mph N/A Fog , Rain , Thunderstorm Heavy Thunderstorms and Rain
10:30 AM 64.4 °F 62.6 °F 94% 29.71 in 0.2 mi South 15.0 mph 24.2 mph N/A Fog , Rain , Thunderstorm Heavy Thunderstorms and Rain
10:31 AM 64.4 °F 62.6 °F 94% 29.69 in 0.2 mi SE 16.1 mph 24.2 mph N/A Fog , Rain , Thunderstorm Heavy Thunderstorms and Rain
10:32 AM 64.4 °F 62.6 °F 94% 29.65 in 0.2 mi ESE 18.4 mph 24.2 mph N/A Fog , Rain , Thunderstorm Heavy Thunderstorms and Rain
10:33 AM 64.4 °F 62.6 °F 94% 29.63 in 0.2 mi ESE 16.1 mph 24.2 mph N/A Fog , Rain , Thunderstorm Heavy Thunderstorms and Rain
10:36 AM 64.4 °F 62.6 °F 94% 29.63 in 0.2 mi SSE 12.7 mph 24.2 mph N/A Fog , Rain , Thunderstorm Heavy Thunderstorms and Rain
10:37 AM 64.4 °F 62.6 °F 94% 29.63 in 0.2 mi SE 16.1 mph - N/A Fog , Rain , Thunderstorm Light Thunderstorms and Rain
10:38 AM 64.4 °F 62.6 °F 94% 29.63 in 0.2 mi SE 17.3 mph - N/A Fog , Rain , Thunderstorm Light Thunderstorms and Rain
10:39 AM 64.4 °F 62.6 °F 94% 29.62 in 0.2 mi ESE 16.1 mph - N/A Fog , Rain , Thunderstorm Light Thunderstorms and Rain
10:40 AM 64.4 °F 62.6 °F 94% 29.63 in 0.5 mi SE 12.7 mph - N/A Fog , Rain , Thunderstorm Light Thunderstorms and Rain
10:41 AM 64.4 °F 62.6 °F 94% 29.63 in 0.8 mi SE 10.4 mph - N/A Rain , Thunderstorm Light Thunderstorms and Rain
10:42 AM 64.4 °F 62.6 °F 94% 29.64 in 1.0 mi SE 11.5 mph - N/A Rain , Thunderstorm Light Thunderstorms and Rain
10:43 AM 64.4 °F 62.6 °F 94% 29.64 in 1.5 mi SE 11.5 mph - N/A Rain , Thunderstorm Thunderstorms and Rain
10:44 AM 64.4 °F 62.6 °F 94% 29.64 in 2.5 mi SE 10.4 mph - N/A Rain , Thunderstorm Light Thunderstorms and Rain
10:45 AM 64.4 °F 62.6 °F 94% 29.64 in 3.0 mi SE 9.2 mph - N/A Rain , Thunderstorm Light Thunderstorms and Rain
10:58 AM 64.0 °F 63.1 °F 97% 29.66 in 5.0 mi SE 10.4 mph - 0.80 in Rain , Thunderstorm Thunderstorms and Rain
11:26 AM 64.4 °F 64.4 °F 100% 29.58 in 10.0 mi SSE 12.7 mph - N/A Rain Light Rain
11:38 AM 64.4 °F 64.4 °F 100% 29.60 in 10.0 mi South 10.4 mph - N/A Rain Light Rain
11:39 AM 66.2 °F 64.4 °F 94% 29.59 in 10.0 mi South 9.2 mph - N/A   Scattered Clouds
11:43 AM 66.2 °F 66.2 °F 100% 29.58 in 10.0 mi SSE 6.9 mph - N/A   Mostly Cloudy
11:46 AM 66.2 °F 64.4 °F 94% 29.57 in 10.0 mi SSE 8.1 mph - N/A   Mostly Cloudy
11:51 AM 66.2 °F 66.2 °F 100% 29.56 in 10.0 mi SE 6.9 mph - N/A   Mostly Cloudy
11:58 AM 66.4 °F 65.7 °F 98% 29.57 in 10.0 mi SSE 8.1 mph - 0.06 in   Mostly Cloudy
12:43 PM 71.6 °F 68.0 °F 88% 29.56 in 10.0 mi South 10.4 mph - N/A   Overcast
12:53 PM 71.6 °F 68.0 °F 88% 29.55 in 10.0 mi SE 10.4 mph - N/A   Overcast
12:59 PM 71.4 °F 67.6 °F 88% 29.56 in 10.0 mi SE 12.7 mph 16.1 mph N/A   Overcast
1:06 PM 71.6 °F 68.0 °F 88% 29.55 in 10.0 mi SSE 10.4 mph - N/A   Overcast
1:10 PM 71.6 °F 66.2 °F 83% 29.55 in 10.0 mi SSE 12.7 mph - N/A   Overcast
1:19 PM 73.4 °F 68.0 °F 83% 29.54 in 10.0 mi SSE 9.2 mph - N/A   Mostly Cloudy
1:20 PM 73.4 °F 68.0 °F 83% 29.55 in 10.0 mi SSE 8.1 mph - N/A   Mostly Cloudy
1:21 PM 73.4 °F 68.0 °F 83% 29.55 in 10.0 mi SSE 6.9 mph - N/A   Mostly Cloudy
1:22 PM 73.4 °F 68.0 °F 83% 29.54 in 10.0 mi SSE 6.9 mph - N/A   Mostly Cloudy
1:33 PM 73.4 °F 66.2 °F 78% 29.54 in 10.0 mi South 13.8 mph - N/A   Overcast
1:40 PM 73.4 °F 68.0 °F 83% 29.53 in 10.0 mi South 10.4 mph - N/A   Overcast
1:51 PM 73.4 °F 66.2 °F 78% 29.52 in 10.0 mi South 6.9 mph - N/A   Overcast
1:54 PM 73.4 °F 68.0 °F 83% 29.52 in 10.0 mi SSE 8.1 mph - N/A Rain Light Rain
1:58 PM 74.1 °F 67.3 °F 79% 29.52 in 10.0 mi SSE 6.9 mph - 0.00 in Rain Light Rain
2:00 PM 75.2 °F 68.0 °F 78% 29.51 in 10.0 mi SE 6.9 mph - N/A Rain Light Rain
2:29 PM 75.2 °F 68.0 °F 78% 29.50 in 10.0 mi ESE 5.8 mph - N/A   Scattered Clouds
2:32 PM 75.2 °F 68.0 °F 78% 29.51 in 10.0 mi SE 8.1 mph - N/A   Mostly Cloudy
2:58 PM 75.0 °F 67.5 °F 77% 29.53 in 10.0 mi South 10.4 mph - 0.00 in   Overcast
3:03 PM 75.2 °F 68.0 °F 78% 29.52 in 10.0 mi SSE 8.1 mph - N/A   Overcast
3:13 PM 75.2 °F 68.0 °F 78% 29.51 in 10.0 mi SE 6.9 mph - N/A   Mostly Cloudy
3:32 PM 75.2 °F 68.0 °F 78% 29.49 in 10.0 mi SE 4.6 mph - N/A Rain Light Rain
3:33 PM 75.2 °F 68.0 °F 78% 29.49 in 10.0 mi SE 4.6 mph - N/A   Scattered Clouds
3:34 PM 75.2 °F 68.0 °F 78% 29.49 in 10.0 mi Variable 4.6 mph - N/A   Light Drizzle
3:58 PM 77.9 °F 69.3 °F 75% 29.49 in 10.0 mi SE 6.9 mph - 0.00 in Rain Light Rain
3:59 PM 78.8 °F 69.8 °F 74% 29.48 in 10.0 mi SE 8.1 mph - N/A   Partly Cloudy
4:21 PM 78.8 °F 69.8 °F 74% 29.46 in 10.0 mi SE 5.8 mph - N/A Rain Light Rain
4:29 PM 78.8 °F 69.8 °F 74% 29.46 in 10.0 mi Variable 5.8 mph - N/A   Clear
4:30 PM 78.8 °F 69.8 °F 74% 29.46 in 10.0 mi Variable 5.8 mph - N/A   Light Drizzle
4:31 PM 78.8 °F 69.8 °F 74% 29.46 in 10.0 mi SE 5.8 mph - N/A   Clear
4:32 PM 78.8 °F 69.8 °F 74% 29.46 in 10.0 mi SE 6.9 mph - N/A Rain Light Rain
4:44 PM 78.8 °F 69.8 °F 74% 29.45 in 10.0 mi SE 6.9 mph - N/A   Partly Cloudy
4:58 PM 78.1 °F 69.6 °F 75% 29.45 in 10.0 mi SSE 5.8 mph - 0.00 in   Scattered Clouds
5:34 PM 78.8 °F 71.6 °F 78% 29.41 in 10.0 mi SE 6.9 mph - N/A Rain Light Rain
5:50 PM 77.0 °F 69.8 °F 78% 29.41 in 10.0 mi SE 5.8 mph - N/A   Clear
5:58 PM 77.7 °F 70.5 °F 78% 29.42 in 10.0 mi SE 5.8 mph - 0.00 in   Clear
6:48 PM 77.0 °F 71.6 °F 83% 29.40 in 10.0 mi SSE 9.2 mph - N/A Rain Light Rain
6:53 PM 75.2 °F 71.6 °F 89% 29.40 in 10.0 mi SSE 8.1 mph - N/A Rain Light Rain
6:58 PM 75.6 °F 71.2 °F 86% 29.42 in 10.0 mi SSE 10.4 mph - 0.00 in Rain Light Rain
7:05 PM 75.2 °F 71.6 °F 89% 29.40 in 9.0 mi SSE 15.0 mph 19.6 mph N/A Rain Light Rain
7:06 PM 75.2 °F 71.6 °F 89% 29.40 in 9.0 mi SSE 16.1 mph 19.6 mph N/A Rain Light Rain
7:07 PM 75.2 °F 71.6 °F 89% 29.40 in 8.0 mi SSE 16.1 mph 21.9 mph N/A Rain Light Rain
7:20 PM 73.4 °F 71.6 °F 94% 29.39 in 8.0 mi South 15.0 mph - N/A Rain Light Rain
7:39 PM 71.6 °F 69.8 °F 94% 29.39 in 10.0 mi South 8.1 mph - N/A Rain Light Rain
7:47 PM 71.6 °F 71.6 °F 100% 29.39 in 10.0 mi South 9.2 mph - N/A   Scattered Clouds
7:52 PM 71.6 °F 69.8 °F 94% 29.40 in 10.0 mi South 9.2 mph - N/A   Partly Cloudy
7:58 PM 71.2 °F 70.7 °F 98% 29.41 in 10.0 mi South 9.2 mph - 0.06 in   Clear
8:17 PM 71.6 °F 69.8 °F 94% 29.40 in 10.0 mi SW 5.8 mph - N/A   Mostly Cloudy
8:26 PM 71.6 °F 69.8 °F 94% 29.41 in 10.0 mi West 5.8 mph - N/A   Mostly Cloudy
8:48 PM 68.0 °F 68.0 °F 100% 29.41 in 10.0 mi North 11.5 mph - N/A   Overcast
8:57 PM 68.0 °F 68.0 °F 100% 29.41 in 10.0 mi NNE 8.1 mph - N/A   Overcast
8:58 PM 68.0 °F 68.0 °F 100% 29.42 in 10.0 mi NE 9.2 mph - N/A   Overcast
9:04 PM 68.0 °F 66.2 °F 94% 29.41 in 10.0 mi NNE 10.4 mph - N/A   Overcast
9:06 PM 68.0 °F 66.2 °F 94% 29.41 in 10.0 mi North 10.4 mph - N/A   Overcast
9:10 PM 68.0 °F 66.2 °F 94% 29.41 in 10.0 mi North 9.2 mph - N/A   Overcast
9:13 PM 66.2 °F 66.2 °F 100% 29.42 in 10.0 mi North 10.4 mph - N/A   Overcast
9:22 PM 66.2 °F 64.4 °F 94% 29.43 in 10.0 mi North 11.5 mph - N/A Rain Light Rain
9:27 PM 66.2 °F 64.4 °F 94% 29.42 in 9.0 mi NE 11.5 mph - N/A Rain Light Rain
9:32 PM 64.4 °F 64.4 °F 100% 29.42 in 6.0 mi NE 10.4 mph - N/A Rain Light Rain
9:48 PM 64.4 °F 64.4 °F 100% 29.43 in 7.0 mi North 10.4 mph - N/A Rain Light Rain
9:49 PM 64.4 °F 64.4 °F 100% 29.43 in 7.0 mi North 10.4 mph - N/A Rain Light Rain
9:50 PM 64.4 °F 64.4 °F 100% 29.43 in 10.0 mi North 11.5 mph - N/A Rain Light Rain
9:58 PM 64.6 °F 64.0 °F 98% 29.45 in 10.0 mi NNW 16.1 mph - 0.02 in Rain Light Rain
10:16 PM 64.4 °F 62.6 °F 94% 29.44 in 10.0 mi North 11.5 mph - N/A Rain Light Rain
10:22 PM 64.4 °F 62.6 °F 94% 29.44 in 10.0 mi North 10.4 mph - N/A Rain Light Rain
10:38 PM 64.4 °F 62.6 °F 94% 29.44 in 10.0 mi North 9.2 mph - N/A Rain Light Rain
10:58 PM 63.1 °F 62.1 °F 96% 29.46 in 10.0 mi North 11.5 mph - 0.01 in Rain Rain
11:26 PM 62.6 °F 60.8 °F 94% 29.45 in 10.0 mi North 12.7 mph - N/A Rain Light Rain
11:32 PM 62.6 °F 60.8 °F 94% 29.45 in 10.0 mi North 13.8 mph - N/A   Overcast
11:58 PM 60.8 °F 59.2 °F 94% 29.48 in 10.0 mi North 13.8 mph - 0.01 in   Overcast
11:59 PM 60.8 °F 59.0 °F 94% 29.47 in 10.0 mi North 13.8 mph - N/A   Overcast